Location: Unspecified
(58.7730°N, 5.8460°E)
Time: 23:48:14
(UTC+01:00)

Cosmos 2058 - Visible Passes

Search period start: 27 February 2017 00:00
Search period end: 09 March 2017 00:00
Orbit: 565 x 585 km, 82.5° (Epoch: 26 February)

Date Brightness Start Highest point End Pass type
(mag) Time Alt. Az. Time Alt. Az. Time Alt. Az.
28 Feb 6.0 23:07:18 10° N 23:07:32 11° N 23:07:32 11° N visible
01 Mar 5.9 23:10:37 10° N 23:11:03 12° N 23:11:03 12° N visible
02 Mar 6.2 00:47:16 10° NNW 00:47:18 10° NNW 00:47:18 10° NNW visible
02 Mar 5.8 23:13:57 10° N 23:14:35 13° N 23:14:35 13° N visible
03 Mar 6.2 00:50:46 10° NNW 00:50:49 10° NNW 00:50:49 10° NNW visible
03 Mar 5.8 23:17:19 10° N 23:18:06 14° N 23:18:06 14° N visible
04 Mar 6.2 00:54:18 10° NNW 00:54:20 10° NNW 00:54:20 10° NNW visible
04 Mar 5.7 23:20:42 10° N 23:21:38 16° N 23:21:38 16° N visible
05 Mar 6.1 00:57:51 10° NNW 00:57:52 10° NNW 00:57:52 10° NNW visible
05 Mar 5.6 21:48:38 10° NNE 21:48:55 11° NNE 21:48:55 11° NNE visible
05 Mar 5.6 23:24:06 10° N 23:25:09 17° N 23:25:09 17° N visible
06 Mar 5.5 21:51:39 10° NNE 21:52:27 12° NNE 21:52:27 12° NNE visible
06 Mar 5.6 23:27:31 10° N 23:28:42 18° N 23:28:42 18° N visible
07 Mar 5.4 21:54:48 10° NNE 21:56:00 14° NNE 21:56:00 14° NNE visible
07 Mar 5.5 23:30:57 10° NNW 23:32:14 19° N 23:32:14 19° N visible
08 Mar 5.2 21:58:03 10° N 21:59:32 16° NNE 21:59:32 16° NNE visible
08 Mar 5.4 23:34:24 10° NNW 23:35:47 20° NNW 23:35:47 20° NNW visible
